Location: T�bingen+AIT
(48.5342°N, 9.0700°E)
Time: 15:09:48
(UTC+01:00)

USA 267 - Pass Details

Date: 14 September 2017
Orbit: 1100 x 1107 km, 123.0° (Epoch: 06 November)

Event Time Altitude Azimuth Distance (km) Brightness Sun altitude
Exits shadow 20:50:41 11° 80° (E) 2,859 4.9 -12.5°
Maximum altitude 20:56:34 46° 11° (N) 1,444 4.0 -13.4°
Drops below altitude 10° 21:02:44 10° 301° (WNW) 2,964 6.9 -14.4°
Sets 21:05:18 0° 296° (WNW) 3,924 8.1 -14.8°
